owner,sensor,date,latitude,longitude,air_temperature,qcFlag 
COMPS,ioos:station:USF.COMPS:FHP:1,2011-10-07T19:00:00Z,28.1530,-82.8010,23.8,1111122 
COMPS,ioos:station:USF.COMPS:FHP:1,2011-10-07T20:00:00Z,28.1530,-82.8010,24.8,1111122 
COMPS,ioos:station:USF.COMPS:FHP:1,2011-10-07T21:00:00Z,28.1530,-82.8010,25.6,1111122 
COMPS,ioos:station:USF.COMPS:FHP:1,2011-10-07T22:00:00Z,28.1530,-82.8010,26.3,1111122 
COMPS,ioos:station:USF.COMPS:FHP:1,2011-10-07T23:00:00Z,28.1530,-82.8010,26.1,1111122 
COMPS,ioos:station:USF.COMPS:FHP:1,2011-10-08T00:00:00Z,28.1530,-82.8010,25.0,1111122 
COMPS,ioos:station:USF.COMPS:FHP:1,2011-10-08T01:00:00Z,28.1530,-82.8010,24.3,1111122 
COMPS,ioos:station:USF.COMPS:FHP:1,2011-10-08T02:00:00Z,28.1530,-82.8010,21.7,1111122 
COMPS,ioos:station:USF.COMPS:FHP:1,2011-10-08T03:00:00Z,28.1530,-82.8010,21.7,1111122 
COMPS,ioos:station:USF.COMPS:FHP:1,2011-10-08T04:00:00Z,28.1530,-82.8010,21.1,1111122 
COMPS,ioos:station:USF.COMPS:FHP:1,2011-10-08T05:00:00Z,28.1530,-82.8010,21.1,1111122 
COMPS,ioos:station:USF.COMPS:FHP:1,2011-10-08T06:00:00Z,28.1530,-82.8010,21.1,1111122 
COMPS,ioos:station:USF.COMPS:FHP:1,2011-10-08T07:00:00Z,28.1530,-82.8010,21.4,1111122 
COMPS,ioos:station:USF.COMPS:FHP:1,2011-10-08T08:00:00Z,28.1530,-82.8010,21.2,1111122 
COMPS,ioos:station:USF.COMPS:FHP:1,2011-10-08T09:00:00Z,28.1530,-82.8010,20.9,1111122 
COMPS,ioos:station:USF.COMPS:FHP:1,2011-10-08T10:00:00Z,28.1530,-82.8010,21.2,1111122 
COMPS,ioos:station:USF.COMPS:FHP:1,2011-10-08T11:00:00Z,28.1530,-82.8010,21.1,1111122 
COMPS,ioos:station:USF.COMPS:FHP:1,2011-10-08T12:00:00Z,28.1530,-82.8010,21.0,1111122 
COMPS,ioos:station:USF.COMPS:FHP:1,2011-10-08T13:00:00Z,28.1530,-82.8010,22.3,1111122 
COMPS,ioos:station:USF.COMPS:FHP:1,2011-10-08T14:00:00Z,28.1530,-82.8010,23.6,1111122 
COMPS,ioos:station:USF.COMPS:FHP:1,2011-10-08T15:00:00Z,28.1530,-82.8010,24.3,1111122 
COMPS,ioos:station:USF.COMPS:FHP:1,2011-10-08T16:00:00Z,28.1530,-82.8010,25.1,1111122 
COMPS,ioos:station:USF.COMPS:FHP:1,2011-10-08T17:00:00Z,28.1530,-82.8010,25.6,1111122 
COMPS,ioos:station:USF.COMPS:FHP:1,2011-10-08T18:00:00Z,28.1530,-82.8010,25.6,1111122 
COMPS,ioos:station:USF.COMPS:FHP:1,2011-10-08T19:00:00Z,28.1530,-82.8010,26.0,1111122 
COMPS,ioos:station:USF.COMPS:FHP:1,2011-10-08T20:00:00Z,28.1530,-82.8010,25.8,1111122 
COMPS,ioos:station:USF.COMPS:FHP:1,2011-10-08T21:00:00Z,28.1530,-82.8010,25.0,1111122 
COMPS,ioos:station:USF.COMPS:FHP:1,2011-10-08T22:00:00Z,28.1530,-82.8010,23.8,1111122 
COMPS,ioos:station:USF.COMPS:FHP:1,2011-10-08T23:00:00Z,28.1530,-82.8010,23.4,1111122 
COMPS,ioos:station:USF.COMPS:FHP:1,2011-10-09T00:00:00Z,28.1530,-82.8010,22.4,1111122 
COMPS,ioos:station:USF.COMPS:FHP:1,2011-10-09T01:00:00Z,28.1530,-82.8010,21.7,1111122 
COMPS,ioos:station:USF.COMPS:FHP:1,2011-10-09T02:00:00Z,28.1530,-82.8010,21.7,1111122 
COMPS,ioos:station:USF.COMPS:FHP:1,2011-10-09T03:00:00Z,28.1530,-82.8010,21.6,1111122 
COMPS,ioos:station:USF.COMPS:FHP:1,2011-10-09T04:00:00Z,28.1530,-82.8010,21.2,1111122 
COMPS,ioos:station:USF.COMPS:FHP:1,2011-10-09T05:00:00Z,28.1530,-82.8010,21.7,1111122 
COMPS,ioos:station:USF.COMPS:FHP:1,2011-10-09T06:00:00Z,28.1530,-82.8010,21.9,1111122 
COMPS,ioos:station:USF.COMPS:FHP:1,2011-10-09T07:00:00Z,28.1530,-82.8010,21.9,1111122 
COMPS,ioos:station:USF.COMPS:FHP:1,2011-10-09T08:00:00Z,28.1530,-82.8010,21.9,1111122 
COMPS,ioos:station:USF.COMPS:FHP:1,2011-10-09T09:00:00Z,28.1530,-82.8010,21.8,1111122 
COMPS,ioos:station:USF.COMPS:FHP:1,2011-10-09T10:00:00Z,28.1530,-82.8010,21.5,1111122 
COMPS,ioos:station:USF.COMPS:FHP:1,2011-10-09T11:00:00Z,28.1530,-82.8010,21.5,1111122 
COMPS,ioos:station:USF.COMPS:FHP:1,2011-10-09T12:00:00Z,28.1530,-82.8010,21.8,1111122 
COMPS,ioos:station:USF.COMPS:FHP:1,2011-10-09T13:00:00Z,28.1530,-82.8010,21.9,1111122 
COMPS,ioos:station:USF.COMPS:FHP:1,2011-10-09T14:00:00Z,28.1530,-82.8010,22.2,1111122 
COMPS,ioos:station:USF.COMPS:FHP:1,2011-10-09T15:00:00Z,28.1530,-82.8010,22.3,1111122 
COMPS,ioos:station:USF.COMPS:FHP:1,2011-10-09T16:00:00Z,28.1530,-82.8010,22.4,1111122 
COMPS,ioos:station:USF.COMPS:FHP:1,2011-10-09T17:00:00Z,28.1530,-82.8010,22.2,1111122 
COMPS,ioos:station:USF.COMPS:FHP:1,2011-10-09T18:00:00Z,28.1530,-82.8010,22.4,1111122 
COMPS,ioos:station:USF.COMPS:FHP:1,2011-10-09T20:00:00Z,28.1530,-82.8010,22.6,1111122 
COMPS,ioos:station:USF.COMPS:FHP:1,2011-10-09T21:00:00Z,28.1530,-82.8010,22.8,1111122 
COMPS,ioos:station:USF.COMPS:FHP:1,2011-10-09T22:00:00Z,28.1530,-82.8010,22.7,1111122 
COMPS,ioos:station:USF.COMPS:FHP:1,2011-10-09T23:00:00Z,28.1530,-82.8010,22.4,1111122 
COMPS,ioos:station:USF.COMPS:FHP:1,2011-10-10T00:00:00Z,28.1530,-82.8010,22.5,1111122 
COMPS,ioos:station:USF.COMPS:FHP:1,2011-10-10T01:00:00Z,28.1530,-82.8010,22.2,1111122 
COMPS,ioos:station:USF.COMPS:FHP:1,2011-10-10T02:00:00Z,28.1530,-82.8010,22.1,1111122 
COMPS,ioos:station:USF.COMPS:FHP:1,2011-10-10T03:00:00Z,28.1530,-82.8010,22.2,1111122 
COMPS,ioos:station:USF.COMPS:FHP:1,2011-10-10T04:00:00Z,28.1530,-82.8010,22.3,1111122 
COMPS,ioos:station:USF.COMPS:FHP:1,2011-10-10T05:00:00Z,28.1530,-82.8010,22.7,1111122 
COMPS,ioos:station:USF.COMPS:FHP:1,2011-10-10T06:00:00Z,28.1530,-82.8010,22.7,1111122 
COMPS,ioos:station:USF.COMPS:FHP:1,2011-10-10T07:00:00Z,28.1530,-82.8010,22.7,1111122 
COMPS,ioos:station:USF.COMPS:FHP:1,2011-10-10T08:00:00Z,28.1530,-82.8010,22.9,1111122 
COMPS,ioos:station:USF.COMPS:FHP:1,2011-10-10T09:00:00Z,28.1530,-82.8010,23.0,1111122 
COMPS,ioos:station:USF.COMPS:FHP:1,2011-10-10T10:00:00Z,28.1530,-82.8010,23.4,1111122 
COMPS,ioos:station:USF.COMPS:FHP:1,2011-10-10T11:00:00Z,28.1530,-82.8010,23.2,1111122 
COMPS,ioos:station:USF.COMPS:FHP:1,2011-10-10T12:00:00Z,28.1530,-82.8010,22.8,1111122 
COMPS,ioos:station:USF.COMPS:FHP:1,2011-10-10T13:00:00Z,28.1530,-82.8010,23.8,1111122 
COMPS,ioos:station:USF.COMPS:FHP:1,2011-10-10T14:00:00Z,28.1530,-82.8010,23.7,1111122 
COMPS,ioos:station:USF.COMPS:FHP:1,2011-10-10T15:00:00Z,28.1530,-82.8010,24.0,1111122 
COMPS,ioos:station:USF.COMPS:FHP:1,2011-10-10T16:00:00Z,28.1530,-82.8010,24.5,1111122 
COMPS,ioos:station:USF.COMPS:FHP:1,2011-10-10T17:00:00Z,28.1530,-82.8010,24.7,1111122 
COMPS,ioos:station:USF.COMPS:FHP:1,2011-10-10T18:00:00Z,28.1530,-82.8010,24.3,1111122 
COMPS,ioos:station:USF.COMPS:FHP:1,2011-10-10T19:00:00Z,28.1530,-82.8010,24.8,1111122 
COMPS,ioos:station:USF.COMPS:FHP:1,2011-10-10T20:00:00Z,28.1530,-82.8010,25.2,1111122 
COMPS,ioos:station:USF.COMPS:FHP:1,2011-10-10T21:00:00Z,28.1530,-82.8010,25.5,1111122 
COMPS,ioos:station:USF.COMPS:FHP:1,2011-10-10T22:00:00Z,28.1530,-82.8010,25.4,1111122 
COMPS,ioos:station:USF.COMPS:FHP:1,2011-10-10T23:00:00Z,28.1530,-82.8010,25.4,1111122 
COMPS,ioos:station:USF.COMPS:FHP:1,2011-10-11T00:00:00Z,28.1530,-82.8010,24.2,1111122 
COMPS,ioos:station:USF.COMPS:FHP:1,2011-10-11T01:00:00Z,28.1530,-82.8010,24.5,1111122 
COMPS,ioos:station:USF.COMPS:FHP:1,2011-10-11T02:00:00Z,28.1530,-82.8010,24.9,1111122 
COMPS,ioos:station:USF.COMPS:FHP:1,2011-10-11T03:00:00Z,28.1530,-82.8010,24.8,1111122 
COMPS,ioos:station:USF.COMPS:FHP:1,2011-10-11T04:00:00Z,28.1530,-82.8010,24.5,1111122 
COMPS,ioos:station:USF.COMPS:FHP:1,2011-10-11T05:00:00Z,28.1530,-82.8010,24.2,1111122 
COMPS,ioos:station:USF.COMPS:FHP:1,2011-10-11T06:00:00Z,28.1530,-82.8010,24.0,1111122 
COMPS,ioos:station:USF.COMPS:FHP:1,2011-10-11T07:00:00Z,28.1530,-82.8010,24.1,1111122 
COMPS,ioos:station:USF.COMPS:FHP:1,2011-10-11T08:00:00Z,28.1530,-82.8010,23.9,1111122 
COMPS,ioos:station:USF.COMPS:FHP:1,2011-10-11T09:00:00Z,28.1530,-82.8010,23.9,1111122 
COMPS,ioos:station:USF.COMPS:FHP:1,2011-10-11T10:00:00Z,28.1530,-82.8010,24.2,1111122 
COMPS,ioos:station:USF.COMPS:FHP:1,2011-10-11T11:00:00Z,28.1530,-82.8010,23.8,1111122 
COMPS,ioos:station:USF.COMPS:FHP:1,2011-10-11T12:00:00Z,28.1530,-82.8010,23.8,1111122 
COMPS,ioos:station:USF.COMPS:FHP:1,2011-10-11T13:00:00Z,28.1530,-82.8010,24.5,1111122 
COMPS,ioos:station:USF.COMPS:FHP:1,2011-10-11T14:00:00Z,28.1530,-82.8010,25.2,1111122 
COMPS,ioos:station:USF.COMPS:FHP:1,2011-10-11T15:00:00Z,28.1530,-82.8010,25.5,1111122 
COMPS,ioos:station:USF.COMPS:FHP:1,2011-10-11T16:00:00Z,28.1530,-82.8010,26.2,1111122 
COMPS,ioos:station:USF.COMPS:FHP:1,2011-10-11T17:00:00Z,28.1530,-82.8010,26.4,1111122 
COMPS,ioos:station:USF.COMPS:FHP:1,2011-10-11T18:00:00Z,28.1530,-82.8010,26.6,1111122 
COMPS,ioos:station:USF.COMPS:FHP:1,2011-10-11T19:00:00Z,28.1530,-82.8010,26.8,1111122 
COMPS,ioos:station:USF.COMPS:FHP:1,2011-10-11T20:00:00Z,28.1530,-82.8010,26.9,1111122 
COMPS,ioos:station:USF.COMPS:FHP:1,2011-10-11T21:00:00Z,28.1530,-82.8010,26.9,1111122 
COMPS,ioos:station:USF.COMPS:FHP:1,2011-10-11T22:00:00Z,28.1530,-82.8010,26.8,1111122 
COMPS,ioos:station:USF.COMPS:FHP:1,2011-10-11T23:00:00Z,28.1530,-82.8010,26.4,1111122 
COMPS,ioos:station:USF.COMPS:FHP:1,2011-10-12T00:00:00Z,28.1530,-82.8010,26.3,1111122 
COMPS,ioos:station:USF.COMPS:FHP:1,2011-10-12T01:00:00Z,28.1530,-82.8010,26.2,1111122 
COMPS,ioos:station:USF.COMPS:FHP:1,2011-10-12T02:00:00Z,28.1530,-82.8010,26.0,1111122 
COMPS,ioos:station:USF.COMPS:FHP:1,2011-10-12T03:00:00Z,28.1530,-82.8010,26.0,1111122 
COMPS,ioos:station:USF.COMPS:FHP:1,2011-10-12T04:00:00Z,28.1530,-82.8010,25.6,1111122 
COMPS,ioos:station:USF.COMPS:FHP:1,2011-10-12T05:00:00Z,28.1530,-82.8010,25.9,1111122 
COMPS,ioos:station:USF.COMPS:FHP:1,2011-10-12T06:00:00Z,28.1530,-82.8010,25.9,1111122 
COMPS,ioos:station:USF.COMPS:FHP:1,2011-10-12T07:00:00Z,28.1530,-82.8010,25.8,1111122 
COMPS,ioos:station:USF.COMPS:FHP:1,2011-10-12T08:00:00Z,28.1530,-82.8010,25.9,1111122 
COMPS,ioos:station:USF.COMPS:FHP:1,2011-10-12T09:00:00Z,28.1530,-82.8010,25.9,1111122 
COMPS,ioos:station:USF.COMPS:FHP:1,2011-10-12T10:00:00Z,28.1530,-82.8010,25.9,1111122 
COMPS,ioos:station:USF.COMPS:FHP:1,2011-10-12T11:00:00Z,28.1530,-82.8010,25.9,1111122 
COMPS,ioos:station:USF.COMPS:FHP:1,2011-10-12T12:00:00Z,28.1530,-82.8010,25.9,1111122 
COMPS,ioos:station:USF.COMPS:FHP:1,2011-10-12T13:00:00Z,28.1530,-82.8010,26.0,1111122 
COMPS,ioos:station:USF.COMPS:FHP:1,2011-10-12T14:00:00Z,28.1530,-82.8010,26.2,1111122 
COMPS,ioos:station:USF.COMPS:FHP:1,2011-10-12T15:00:00Z,28.1530,-82.8010,26.5,1111122 
COMPS,ioos:station:USF.COMPS:FHP:1,2011-10-12T16:00:00Z,28.1530,-82.8010,26.8,1111122 
COMPS,ioos:station:USF.COMPS:FHP:1,2011-10-12T17:00:00Z,28.1530,-82.8010,26.7,1111122 
COMPS,ioos:station:USF.COMPS:FHP:1,2011-10-12T18:00:00Z,28.1530,-82.8010,27.1,1111122 
COMPS,ioos:station:USF.COMPS:FHP:1,2011-10-12T19:00:00Z,28.1530,-82.8010,27.2,1111122 
COMPS,ioos:station:USF.COMPS:FHP:1,2011-10-12T20:00:00Z,28.1530,-82.8010,27.5,1111122 
COMPS,ioos:station:USF.COMPS:FHP:1,2011-10-12T21:00:00Z,28.1530,-82.8010,27.7,1111122 
COMPS,ioos:station:USF.COMPS:FHP:1,2011-10-12T22:00:00Z,28.1530,-82.8010,26.5,1111122 
COMPS,ioos:station:USF.COMPS:FHP:1,2011-10-12T23:00:00Z,28.1530,-82.8010,26.6,1111122 
COMPS,ioos:station:USF.COMPS:FHP:1,2011-10-13T00:00:00Z,28.1530,-82.8010,26.4,1111122 
COMPS,ioos:station:USF.COMPS:FHP:1,2011-10-13T01:00:00Z,28.1530,-82.8010,26.4,1111122 
COMPS,ioos:station:USF.COMPS:FHP:1,2011-10-13T02:00:00Z,28.1530,-82.8010,25.7,1111122 
COMPS,ioos:station:USF.COMPS:FHP:1,2011-10-13T03:00:00Z,28.1530,-82.8010,25.4,1111122 
COMPS,ioos:station:USF.COMPS:FHP:1,2011-10-13T04:00:00Z,28.1530,-82.8010,25.2,1111122 
COMPS,ioos:station:USF.COMPS:FHP:1,2011-10-13T05:00:00Z,28.1530,-82.8010,25.1,1111122 
COMPS,ioos:station:USF.COMPS:FHP:1,2011-10-13T06:00:00Z,28.1530,-82.8010,25.3,1111122 
COMPS,ioos:station:USF.COMPS:FHP:1,2011-10-13T07:00:00Z,28.1530,-82.8010,25.6,1111122 
COMPS,ioos:station:USF.COMPS:FHP:1,2011-10-13T08:00:00Z,28.1530,-82.8010,25.6,1111122 
COMPS,ioos:station:USF.COMPS:FHP:1,2011-10-13T09:00:00Z,28.1530,-82.8010,25.5,1111122 
COMPS,ioos:station:USF.COMPS:FHP:1,2011-10-13T10:00:00Z,28.1530,-82.8010,25.5,1111122 
COMPS,ioos:station:USF.COMPS:FHP:1,2011-10-13T11:00:00Z,28.1530,-82.8010,25.6,1111122 
COMPS,ioos:station:USF.COMPS:FHP:1,2011-10-13T12:00:00Z,28.1530,-82.8010,24.2,1111122 
COMPS,ioos:station:USF.COMPS:FHP:1,2011-10-13T13:00:00Z,28.1530,-82.8010,24.7,1111122 
COMPS,ioos:station:USF.COMPS:FHP:1,2011-10-13T14:00:00Z,28.1530,-82.8010,24.8,1111122 
COMPS,ioos:station:USF.COMPS:FHP:1,2011-10-13T15:00:00Z,28.1530,-82.8010,25.2,1111122 
COMPS,ioos:station:USF.COMPS:FHP:1,2011-10-13T16:00:00Z,28.1530,-82.8010,25.8,1111122 
COMPS,ioos:station:USF.COMPS:FHP:1,2011-10-13T18:00:00Z,28.1530,-82.8010,26.3,1111122 
COMPS,ioos:station:USF.COMPS:FHP:1,2011-10-13T19:00:00Z,28.1530,-82.8010,26.2,1111122 
COMPS,ioos:station:USF.COMPS:FHP:1,2011-10-13T20:00:00Z,28.1530,-82.8010,26.2,1111122 
COMPS,ioos:station:USF.COMPS:FHP:1,2011-10-13T21:00:00Z,28.1530,-82.8010,26.6,1111122 
COMPS,ioos:station:USF.COMPS:FHP:1,2011-10-13T22:00:00Z,28.1530,-82.8010,26.9,1111122 
COMPS,ioos:station:USF.COMPS:FHP:1,2011-10-13T23:00:00Z,28.1530,-82.8010,26.7,1111122 
COMPS,ioos:station:USF.COMPS:FHP:1,2011-10-14T00:00:00Z,28.1530,-82.8010,26.5,1111122 
COMPS,ioos:station:USF.COMPS:FHP:1,2011-10-14T01:00:00Z,28.1530,-82.8010,26.4,1111122 
COMPS,ioos:station:USF.COMPS:FHP:1,2011-10-14T02:00:00Z,28.1530,-82.8010,26.5,1111122 
COMPS,ioos:station:USF.COMPS:FHP:1,2011-10-14T03:00:00Z,28.1530,-82.8010,26.4,1111122 
COMPS,ioos:station:USF.COMPS:FHP:1,2011-10-14T04:00:00Z,28.1530,-82.8010,26.2,1111122 
COMPS,ioos:station:USF.COMPS:FHP:1,2011-10-14T05:00:00Z,28.1530,-82.8010,26.1,1111122 
COMPS,ioos:station:USF.COMPS:FHP:1,2011-10-14T06:00:00Z,28.1530,-82.8010,26.1,1111122 
COMPS,ioos:station:USF.COMPS:FHP:1,2011-10-14T07:00:00Z,28.1530,-82.8010,26.0,1111122 
COMPS,ioos:station:USF.COMPS:FHP:1,2011-10-14T08:00:00Z,28.1530,-82.8010,25.9,1111122 
COMPS,ioos:station:USF.COMPS:FHP:1,2011-10-14T09:00:00Z,28.1530,-82.8010,25.7,1111122 
COMPS,ioos:station:USF.COMPS:FHP:1,2011-10-14T10:00:00Z,28.1530,-82.8010,25.9,1111122 
COMPS,ioos:station:USF.COMPS:FHP:1,2011-10-14T11:00:00Z,28.1530,-82.8010,26.0,1111122 
COMPS,ioos:station:USF.COMPS:FHP:1,2011-10-14T12:00:00Z,28.1530,-82.8010,25.0,1111122 
COMPS,ioos:station:USF.COMPS:FHP:1,2011-10-14T13:00:00Z,28.1530,-82.8010,24.2,1111122 
COMPS,ioos:station:USF.COMPS:FHP:1,2011-10-14T14:00:00Z,28.1530,-82.8010,23.9,1111122 
COMPS,ioos:station:USF.COMPS:FHP:1,2011-10-14T15:00:00Z,28.1530,-82.8010,24.4,1111122 
COMPS,ioos:station:USF.COMPS:FHP:1,2011-10-14T16:00:00Z,28.1530,-82.8010,24.7,1111122 
COMPS,ioos:station:USF.COMPS:FHP:1,2011-10-14T17:00:00Z,28.1530,-82.8010,25.1,1111122 
COMPS,ioos:station:USF.COMPS:FHP:1,2011-10-14T18:00:00Z,28.1530,-82.8010,25.3,1111122 
COMPS,ioos:station:USF.COMPS:FHP:1,2011-10-14T20:00:00Z,28.1530,-82.8010,25.8,1111122 
COMPS,ioos:station:USF.COMPS:FHP:1,2011-10-14T21:00:00Z,28.1530,-82.8010,25.7,1111122 
COMPS,ioos:station:USF.COMPS:FHP:1,2011-10-14T22:00:00Z,28.1530,-82.8010,25.7,1111122 
COMPS,ioos:station:USF.COMPS:FHP:1,2011-10-14T23:00:00Z,28.1530,-82.8010,25.2,1111122 
COMPS,ioos:station:USF.COMPS:FHP:1,2011-10-15T00:00:00Z,28.1530,-82.8010,24.9,1111122 
COMPS,ioos:station:USF.COMPS:FHP:1,2011-10-15T01:00:00Z,28.1530,-82.8010,24.9,1111122 
COMPS,ioos:station:USF.COMPS:FHP:1,2011-10-15T02:00:00Z,28.1530,-82.8010,24.8,1111122 
COMPS,ioos:station:USF.COMPS:FHP:1,2011-10-15T03:00:00Z,28.1530,-82.8010,24.9,1111122 
COMPS,ioos:station:USF.COMPS:FHP:1,2011-10-15T04:00:00Z,28.1530,-82.8010,24.8,1111122 
COMPS,ioos:station:USF.COMPS:FHP:1,2011-10-15T05:00:00Z,28.1530,-82.8010,22.4,1111122 
COMPS,ioos:station:USF.COMPS:FHP:1,2011-10-15T07:00:00Z,28.1530,-82.8010,21.0,1111122 
COMPS,ioos:station:USF.COMPS:FHP:1,2011-10-15T11:00:00Z,28.1530,-82.8010,19.6,1111122 
COMPS,ioos:station:USF.COMPS:FHP:1,2011-10-15T22:00:00Z,28.1530,-82.8010,26.0,1111122 
COMPS,ioos:station:USF.COMPS:FHP:1,2011-10-15T23:00:00Z,28.1530,-82.8010,25.3,1111122 
COMPS,ioos:station:USF.COMPS:FHP:1,2011-10-16T00:00:00Z,28.1530,-82.8010,24.6,1111122 
COMPS,ioos:station:USF.COMPS:FHP:1,2011-10-16T01:00:00Z,28.1530,-82.8010,24.0,1111122 
COMPS,ioos:station:USF.COMPS:FHP:1,2011-10-16T02:00:00Z,28.1530,-82.8010,23.6,1111122 
COMPS,ioos:station:USF.COMPS:FHP:1,2011-10-16T03:00:00Z,28.1530,-82.8010,23.1,1111122 
COMPS,ioos:station:USF.COMPS:FHP:1,2011-10-16T04:00:00Z,28.1530,-82.8010,22.7,1111122 
COMPS,ioos:station:USF.COMPS:FHP:1,2011-10-16T05:00:00Z,28.1530,-82.8010,22.4,1111122 
COMPS,ioos:station:USF.COMPS:FHP:1,2011-10-16T06:00:00Z,28.1530,-82.8010,22.1,1111122 
COMPS,ioos:station:USF.COMPS:FHP:1,2011-10-16T07:00:00Z,28.1530,-82.8010,21.6,1111122 
COMPS,ioos:station:USF.COMPS:FHP:1,2011-10-16T08:00:00Z,28.1530,-82.8010,21.4,1111122 
COMPS,ioos:station:USF.COMPS:FHP:1,2011-10-16T09:00:00Z,28.1530,-82.8010,21.0,1111122 
COMPS,ioos:station:USF.COMPS:FHP:1,2011-10-16T11:00:00Z,28.1530,-82.8010,20.3,1111122 
COMPS,ioos:station:USF.COMPS:FHP:1,2011-10-16T12:00:00Z,28.1530,-82.8010,20.5,1111122 
COMPS,ioos:station:USF.COMPS:FHP:1,2011-10-16T13:00:00Z,28.1530,-82.8010,21.1,1111122 
COMPS,ioos:station:USF.COMPS:FHP:1,2011-10-16T14:00:00Z,28.1530,-82.8010,22.9,1111122 
COMPS,ioos:station:USF.COMPS:FHP:1,2011-10-16T15:00:00Z,28.1530,-82.8010,25.4,1111122 
COMPS,ioos:station:USF.COMPS:FHP:1,2011-10-16T16:00:00Z,28.1530,-82.8010,27.2,1111122 
COMPS,ioos:station:USF.COMPS:FHP:1,2011-10-16T17:00:00Z,28.1530,-82.8010,28.4,1111122 
COMPS,ioos:station:USF.COMPS:FHP:1,2011-10-16T18:00:00Z,28.1530,-82.8010,29.3,1111122 
COMPS,ioos:station:USF.COMPS:FHP:1,2011-10-16T19:00:00Z,28.1530,-82.8010,29.5,1111122 
COMPS,ioos:station:USF.COMPS:FHP:1,2011-10-16T20:00:00Z,28.1530,-82.8010,29.4,1111122 
COMPS,ioos:station:USF.COMPS:FHP:1,2011-10-16T21:00:00Z,28.1530,-82.8010,29.4,1111122 
COMPS,ioos:station:USF.COMPS:FHP:1,2011-10-16T22:00:00Z,28.1530,-82.8010,28.8,1111122 
COMPS,ioos:station:USF.COMPS:FHP:1,2011-10-16T23:00:00Z,28.1530,-82.8010,27.9,1111122 
COMPS,ioos:station:USF.COMPS:FHP:1,2011-10-17T00:00:00Z,28.1530,-82.8010,26.8,1111122 
COMPS,ioos:station:USF.COMPS:FHP:1,2011-10-17T01:00:00Z,28.1530,-82.8010,26.0,1111122 
COMPS,ioos:station:USF.COMPS:FHP:1,2011-10-17T02:00:00Z,28.1530,-82.8010,25.1,1111122 
COMPS,ioos:station:USF.COMPS:FHP:1,2011-10-17T03:00:00Z,28.1530,-82.8010,24.4,1111122 
COMPS,ioos:station:USF.COMPS:FHP:1,2011-10-17T04:00:00Z,28.1530,-82.8010,23.5,1111122 
COMPS,ioos:station:USF.COMPS:FHP:1,2011-10-17T05:00:00Z,28.1530,-82.8010,22.7,1111122 
COMPS,ioos:station:USF.COMPS:FHP:1,2011-10-17T06:00:00Z,28.1530,-82.8010,22.3,1111122 
COMPS,ioos:station:USF.COMPS:FHP:1,2011-10-17T07:00:00Z,28.1530,-82.8010,22.2,1111122 
COMPS,ioos:station:USF.COMPS:FHP:1,2011-10-17T08:00:00Z,28.1530,-82.8010,22.3,1111122 
COMPS,ioos:station:USF.COMPS:FHP:1,2011-10-17T09:00:00Z,28.1530,-82.8010,22.0,1111122 
COMPS,ioos:station:USF.COMPS:FHP:1,2011-10-17T10:00:00Z,28.1530,-82.8010,21.9,1111122 
COMPS,ioos:station:USF.COMPS:FHP:1,2011-10-17T14:00:00Z,28.1530,-82.8010,23.2,1111122 
COMPS,ioos:station:USF.COMPS:FHP:1,2011-10-17T15:00:00Z,28.1530,-82.8010,24.9,1111122 
COMPS,ioos:station:USF.COMPS:FHP:1,2011-10-17T16:00:00Z,28.1530,-82.8010,26.8,1111122 
COMPS,ioos:station:USF.COMPS:FHP:1,2011-10-17T17:00:00Z,28.1530,-82.8010,27.5,1111122 
COMPS,ioos:station:USF.COMPS:FHP:1,2011-10-17T18:00:00Z,28.1530,-82.8010,27.6,1111122 
COMPS,ioos:station:USF.COMPS:FHP:1,2011-10-17T19:00:00Z,28.1530,-82.8010,28.4,1111122 
COMPS,ioos:station:USF.COMPS:FHP:1,2011-10-17T20:00:00Z,28.1530,-82.8010,28.9,1111122 
COMPS,ioos:station:USF.COMPS:FHP:1,2011-10-17T21:00:00Z,28.1530,-82.8010,28.5,1111122 
COMPS,ioos:station:USF.COMPS:FHP:1,2011-10-17T22:00:00Z,28.1530,-82.8010,28.0,1111122 
COMPS,ioos:station:USF.COMPS:FHP:1,2011-10-18T16:00:00Z,28.1530,-82.8010,25.4,1111122 
COMPS,ioos:station:USF.COMPS:FHP:1,2011-10-18T17:00:00Z,28.1530,-82.8010,25.8,1111122 
COMPS,ioos:station:USF.COMPS:FHP:1,2011-10-18T18:00:00Z,28.1530,-82.8010,26.1,1111122 
COMPS,ioos:station:USF.COMPS:FHP:1,2011-10-18T19:00:00Z,28.1530,-82.8010,26.1,1111122 
COMPS,ioos:station:USF.COMPS:FHP:1,2011-10-18T20:00:00Z,28.1530,-82.8010,25.7,1111122 
COMPS,ioos:station:USF.COMPS:FHP:1,2011-10-18T21:00:00Z,28.1530,-82.8010,25.2,1111122 
COMPS,ioos:station:USF.COMPS:FHP:1,2011-10-18T22:00:00Z,28.1530,-82.8010,24.7,1111122 
COMPS,ioos:station:USF.COMPS:FHP:1,2011-10-18T23:00:00Z,28.1530,-82.8010,24.8,1111122 
COMPS,ioos:station:USF.COMPS:FHP:1,2011-10-19T00:00:00Z,28.1530,-82.8010,25.2,1111122 
COMPS,ioos:station:USF.COMPS:FHP:1,2011-10-19T01:00:00Z,28.1530,-82.8010,25.0,1111122 
COMPS,ioos:station:USF.COMPS:FHP:1,2011-10-19T02:00:00Z,28.1530,-82.8010,25.3,1111122 
COMPS,ioos:station:USF.COMPS:FHP:1,2011-10-19T03:00:00Z,28.1530,-82.8010,25.5,1111122 
COMPS,ioos:station:USF.COMPS:FHP:1,2011-10-19T04:00:00Z,28.1530,-82.8010,25.7,1111122 
COMPS,ioos:station:USF.COMPS:FHP:1,2011-10-19T05:00:00Z,28.1530,-82.8010,26.6,1111122 
COMPS,ioos:station:USF.COMPS:FHP:1,2011-10-19T07:00:00Z,28.1530,-82.8010,26.6,1111122 
COMPS,ioos:station:USF.COMPS:FHP:1,2011-10-19T08:00:00Z,28.1530,-82.8010,26.4,1111122 
COMPS,ioos:station:USF.COMPS:FHP:1,2011-10-19T09:00:00Z,28.1530,-82.8010,26.1,1111122 
COMPS,ioos:station:USF.COMPS:FHP:1,2011-10-19T10:00:00Z,28.1530,-82.8010,25.4,1111122 
COMPS,ioos:station:USF.COMPS:FHP:1,2011-10-19T11:00:00Z,28.1530,-82.8010,25.9,1111122 
COMPS,ioos:station:USF.COMPS:FHP:1,2011-10-19T12:00:00Z,28.1530,-82.8010,26.1,1111122 
COMPS,ioos:station:USF.COMPS:FHP:1,2011-10-19T13:00:00Z,28.1530,-82.8010,26.3,1111122 
COMPS,ioos:station:USF.COMPS:FHP:1,2011-10-19T14:00:00Z,28.1530,-82.8010,24.8,1111122 
COMPS,ioos:station:USF.COMPS:FHP:1,2011-10-19T15:00:00Z,28.1530,-82.8010,25.1,1111122 
COMPS,ioos:station:USF.COMPS:FHP:1,2011-10-19T16:00:00Z,28.1530,-82.8010,24.3,1111122 
COMPS,ioos:station:USF.COMPS:FHP:1,2011-10-19T17:00:00Z,28.1530,-82.8010,23.9,1111122 
COMPS,ioos:station:USF.COMPS:FHP:1,2011-10-19T18:00:00Z,28.1530,-82.8010,23.9,1111122 
COMPS,ioos:station:USF.COMPS:FHP:1,2011-10-19T19:00:00Z,28.1530,-82.8010,23.7,1111122 
COMPS,ioos:station:USF.COMPS:FHP:1,2011-10-19T20:00:00Z,28.1530,-82.8010,23.0,1111122 
COMPS,ioos:station:USF.COMPS:FHP:1,2011-10-19T21:00:00Z,28.1530,-82.8010,22.4,1111122 
COMPS,ioos:station:USF.COMPS:FHP:1,2011-10-19T22:00:00Z,28.1530,-82.8010,21.6,1111122 
COMPS,ioos:station:USF.COMPS:FHP:1,2011-10-19T23:00:00Z,28.1530,-82.8010,21.4,1111122 
COMPS,ioos:station:USF.COMPS:FHP:1,2011-10-20T00:00:00Z,28.1530,-82.8010,21.4,1111122 
COMPS,ioos:station:USF.COMPS:FHP:1,2011-10-20T01:00:00Z,28.1530,-82.8010,21.7,1111122 
COMPS,ioos:station:USF.COMPS:FHP:1,2011-10-20T02:00:00Z,28.1530,-82.8010,21.9,1111122 
COMPS,ioos:station:USF.COMPS:FHP:1,2011-10-20T04:00:00Z,28.1530,-82.8010,22.3,1111122 
COMPS,ioos:station:USF.COMPS:FHP:1,2011-10-20T05:00:00Z,28.1530,-82.8010,22.4,1111122 
COMPS,ioos:station:USF.COMPS:FHP:1,2011-10-20T06:00:00Z,28.1530,-82.8010,22.5,1111122 
COMPS,ioos:station:USF.COMPS:FHP:1,2011-10-20T07:00:00Z,28.1530,-82.8010,20.4,1111122 
COMPS,ioos:station:USF.COMPS:FHP:1,2011-10-20T08:00:00Z,28.1530,-82.8010,19.5,1111122 
COMPS,ioos:station:USF.COMPS:FHP:1,2011-10-20T09:00:00Z,28.1530,-82.8010,18.7,1111122 
COMPS,ioos:station:USF.COMPS:FHP:1,2011-10-20T10:00:00Z,28.1530,-82.8010,18.5,1111122 
COMPS,ioos:station:USF.COMPS:FHP:1,2011-10-20T11:00:00Z,28.1530,-82.8010,18.3,1111122 
COMPS,ioos:station:USF.COMPS:FHP:1,2011-10-20T12:00:00Z,28.1530,-82.8010,16.6,1111122 
COMPS,ioos:station:USF.COMPS:FHP:1,2011-10-20T13:00:00Z,28.1530,-82.8010,15.0,1111122 
COMPS,ioos:station:USF.COMPS:FHP:1,2011-10-20T14:00:00Z,28.1530,-82.8010,14.9,1111122 
COMPS,ioos:station:USF.COMPS:FHP:1,2011-10-20T15:00:00Z,28.1530,-82.8010,15.8,1111122 
COMPS,ioos:station:USF.COMPS:FHP:1,2011-10-20T16:00:00Z,28.1530,-82.8010,18.2,1111122 
COMPS,ioos:station:USF.COMPS:FHP:1,2011-10-20T17:00:00Z,28.1530,-82.8010,18.3,1111122 
COMPS,ioos:station:USF.COMPS:FHP:1,2011-10-20T18:00:00Z,28.1530,-82.8010,18.4,1111122 
COMPS,ioos:station:USF.COMPS:FHP:1,2011-10-20T20:00:00Z,28.1530,-82.8010,18.9,1111122 
COMPS,ioos:station:USF.COMPS:FHP:1,2011-10-20T21:00:00Z,28.1530,-82.8010,18.9,1111122 
COMPS,ioos:station:USF.COMPS:FHP:1,2011-10-20T22:00:00Z,28.1530,-82.8010,19.9,1111122 